Regional Weather Roundup
Issued by NWS

Home | Current Version | Previous Version | Graphics & Text | Print | Product List | Glossary On
Versions: 1 2 3 4 5 6 7 8 9 10 11 12 13 14 15 16 17 18 19 20 21 22 23 24 25 26 27 28 29 30 31 32 33 34 35 36 37 38 39 40 41 42 43 44 45 46 47 48 49 50
000
ASUS43 KMKX 212321
RWRWI

WISCONSIN REGIONAL WEATHER ROUNDUP
NATIONAL WEATHER SERVICE MILWAUKEE/SULLIVAN WI
600 PM CDT TUE OCT 21 2014

NOTE: "FAIR" INDICATES FEW OR NO CLOUDS BELOW 12,000 FEET WITH NO
SIGNIFICANT WEATHER AND/OR OBSTRUCTIONS TO VISIBILITY.

WIZ001-002-006>008-014>016-023>028-220000-
NORTHWEST WISCONSIN

CITY           SKY/WX    TMP DP  RH WIND       PRES   REMARKS
SUPERIOR ARPT  CLEAR     44  38  79 NE12      30.19F
ASHLAND        CLEAR     41  37  86 NE9       30.24R
HAYWARD        CLEAR     50  35  56 E5        30.19S
SIREN          CLEAR     52  35  51 SE8       30.17R
CUMBERLAND     CLEAR     50  34  53 SE7       30.17S
RICE LAKE      CLEAR     51  36  56 SE7       30.19S
CHETEK         CLEAR     51  37  58 E7        30.19S
LADYSMITH      CLEAR     52  36  54 SE5       30.21S
EAU CLAIRE     CLEAR     51  35  54 SE7       30.19R
MENOMONIE      CLEAR     51  37  57 E7        30.18S
NEW RICHMOND   CLEAR     51  37  58 SE6       30.17S
OSCEOLA        CLEAR     52  39  63 SE8       30.19R
$$

WIZ003>005-009-010-017-018-220000-
NORTH CENTRAL WISCONSIN

CITY           SKY/WX    TMP DP  RH WIND       PRES   REMARKS
MANITOWISH WTR CLEAR     43  34  70 CALM      30.22S
ARBOR VITAE    CLEAR     46  35  65 CALM      30.22S
WOODRUFF       CLEAR     46  35  65 CALM      30.22S
RHINELANDER    CLEAR     45  33  63 CALM      30.23R
EAGLE RIVER    CLEAR     41  32  70 CALM      30.22S
LAND O LAKES   CLEAR     40  33  75 CALM      30.23S
PHILLIPS       CLEAR     46  35  66 E3        30.21S
TOMAHAWK       CLEAR     43  35  72 CALM      30.22F
MEDFORD        CLEAR     46  35  66 SE3       30.21S
MERRILL        CLEAR     49  35  58 CALM      30.22S
$$

WIZ029-030-035-036-043>047-220000-
CENTRAL WISCONSIN

CITY           SKY/WX    TMP DP  RH WIND       PRES   REMARKS
WAUSAU         CLEAR     50  34  54 CALM      30.21S
MOSINEE        CLEAR     48  36  61 E5        30.23S
MARSHFIELD     CLEAR     47  35  63 SE5       30.22R
STEVENS POINT  CLEAR     47  33  59 CALM      30.23S
WAUPACA        CLEAR     50  34  53 CALM      30.24R
WAUTOMA        CLOUDY    49  35  58 CALM      30.24R
WISC RAPIDS    CLEAR     48  36  63 CALM      30.24R
CAMP DOUGLAS   CLEAR     45  37  76 E3        30.22S
$$

WIZ011>013-019>022-031-037>040-048>050-220000-
NORTHEAST WISCONSIN

CITY           SKY/WX    TMP DP  RH WIND       PRES   REMARKS
ANTIGO         CLEAR     45  33  64 CALM      30.22S
SHAWANO        CLEAR     49  33  54 E3        30.24S
OCONTO         CLEAR     46  37  71 CALM      30.25R
STURGEON BAY   CLEAR     46  28  49 NE3       30.25S
GREEN BAY      CLEAR     45  36  70 NE6       30.24S
MANITOWOC      CLEAR     46  38  73 NE3       30.25R
APPLETON       CLEAR     50  32  50 VRB5      30.24R
CLINTONVILLE   CLEAR     50  32  50 E3        30.23S
OSHKOSH        CLEAR     48  31  51 NE7       30.24R
$$

WIZ032>034-041-042-053>061-220000-
SOUTHWEST WISCONSIN

CITY           SKY/WX    TMP DP  RH WIND       PRES   REMARKS
LA CROSSE      CLEAR     55  37  50 SE6       30.19R
SPARTA         CLEAR     50  35  57 E7        30.22S
VIROQUA        CLEAR     49  36  61 SE6       30.20S
BOSCOBEL       CLEAR     53  36  52 E3        30.22R
PRAIRIE DU CHI CLEAR     54  35  49 E6        30.19S
PLATTEVILLE    CLEAR     49  37  64 E6        30.23R
$$

WIZ056-057-062-063-064-067-068-220000-
SOUTH CENTRAL WISCONSIN

CITY           SKY/WX    TMP DP  RH WIND       PRES   REMARKS
REEDSBURG      CLEAR     46  36  67 E3        30.23S
BARABOO/DELLS  CLEAR     45  35  67 E6        30.23S
LONE ROCK      CLEAR     51  36  56 E9        30.23R
MINERAL POINT  CLEAR     48  36  61 E5        30.22R
MADISON        PTCLDY    43  36  76 NE6       30.24S
MIDDLETON      PTCLDY    46  36  67 E8        30.24S
WATERTOWN      CLEAR     44  37  75 NW3       30.23S
MONROE         CLOUDY    45  37  76 E8        30.22S
JANESVILLE     CLOUDY    48  37  66 NE7       30.23R
$$

WIZ051-052-058>065-066-070>072-220000-
SOUTHEAST WISCONSIN

CITY           SKY/WX    TMP DP  RH WIND       PRES   REMARKS
MILWAUKEE      PTCLDY    46  38  73 N7        30.24R
WAUKESHA       PTCLDY    45  36  70 NE3       30.23R
MILWAUKEE/TIMM CLEAR     46  37  71 NE7       30.24R
RACINE         PTCLDY    46  38  73 N10       30.24R
BURLINGTON     CLEAR     42  35  75 CALM      30.22S
KENOSHA        CLEAR     46  37  71 N7        30.23R
FOND DU LAC    CLEAR     46  33  60 N6        30.24R
SHEBOYGAN      CLEAR     43  37  79 NE8       30.24R
WEST BEND      CLEAR     45  34  65 NE6       30.23R
JUNEAU         CLEAR     45  36  69 CALM      30.24S
$$

LSZ147-162-220000-
LAKE SUPERIOR

STATION/POSITION TIME  TEMP    WIND        PRES    WAVE
                       AIR SEA DIR/SP/G            HT/PER
                 (UTC) (F)     (DEG/KT/KT) (MB)    (FT/S)
W MID LAKE BUOY  2250   42 46   80/ 12/ 14 1025.2F   2/ 5
DEVILS ISLAND    2300   44      90/ 13/ 15 1024.7F
PORT WING        2200   47      40/ 15/ 18 1023.4
SAXON HARBOR     2240   46      60/  7/ 13 1023.7F
$$

LMZ867-665-643>646-220000-
LAKE MICHIGAN

STATION/POSITION TIME  TEMP    WIND        PRES    WAVE
                       AIR SEA DIR/SP/G            HT/PER
                 (UTC) (F)     (DEG/KT/KT) (MB)    (FT/S)
CHAMBERS ISLAND  2200   49      30/  9/ 11 1024.0R
N MID LAKE BUOY  2250   48 51   30/ 10/ 12 1024.6R   1/ 4
NORTHPORT PIER   2200   49     350/ 11/ 14 1024.0R
SISTER BAY       2112           10/ 10/ 13   N/A
KEWAUNEE LAKESHO 2300   48      40/  8/ 11 1023.2R
SHEBOYGAN LAKESH 2300   47 50   30/ 15/ 17 1024.6R
PORT WASHINGTON  2200   49      40/ 11/ 13 1024.0
ATWATER BUOY     2300   49      10/ 16/ 19 1024.3R
MILWAUKEE LAKESH 2300   48      10/ 13/ 16   N/A
S MID LAKE BUOY  2250   49 54  350/ 16/ 19 1022.8R   5/ 7
KENOSHA   LAKESH 2300   48     350/ 13/ 18 1023.0R
$$

TC  - TEMPERATURE IN CELSIUS
VSB - VISIBILITY IN STATUTE MILES
WCI - WIND CHILL INDEX
HX  - HEAT INDEX




USA.gov is the U.S. government's official web portal to all federal, state and local government web resources and services.